[[{"header":{"parameterUnit":"m.s-1","parameterCategory":2,"la1":30.2992,"la2":30.254,"lo1":-89.0895,"lo2":-89.0443,"dy":0.0025,"dx":0.0025,"nx":19,"ny":19,"refTime":"2026-03-21T21:00:00:Z","depth":"0","parameterNumber":2,"parameterNumberName":"U-component_of_CURRENTS"},"data":[0,0,0,0.0732,0.073,0.0712,0.0713,0.0945,0.0947,0,0,0,0,0,0,0,0,0,0,0,0.0825,0.0827,0.0732,0.073,0.0712,0.0713,0.0944,0.0947,0,0,0,0,0,0,0,0,0,0,0,0.0825,0.0826,0.0828,0.0729,0.0712,0.0713,0.0944,0.0904,0,0,0,0,0,0,0,0,0,0,0.0894,0.0902,0.0826,0.0828,0.0729,0.0712,0.0713,0.09,0.0907,0.1012,0,0.1043,0,0.095,0.0964,0.0965,0,0,0,0.0773,0.0896,0.0896,0.0828,0.0728,0.0712,0.0732,0.0902,0.091,0.1022,0.1045,0.1049,0.0954,0.0966,0.0967,0.1151,0.1151,0,0,0.0774,0.0815,0.0891,0.0902,0.0774,0.0733,0.0731,0.0904,0.0938,0.1045,0.1051,0.0958,0.0968,0.097,0.1151,0.1151,0,0,0,0.0747,0.0816,0.0808,0.0898,0.0846,0.0731,0.073,0.0931,0.0932,0.1052,0.096,0.0969,0.0972,0.115,0.1151,0.1098,0,0,0,0.075,0.0796,0.081,0.0832,0.0842,0.084,0.0754,0.0923,0.0934,0.0959,0.0969,0.0975,0.115,0.1151,0.1099,0.1064,0,0,0,0.0817,0.0799,0.0815,0.0835,0.0796,0.0834,0.0844,0.0922,0.0877,0.0965,0.0976,0.115,0.115,0.11,0.1066,0.1061,0,0,0,0.0835,0.0818,0.0819,0.0811,0.0796,0.0802,0.0841,0.0877,0.0952,0.0971,0.115,0.1151,0.1101,0.1068,0.1063,0.1032,0.1023,0,0,0.0795,0.0816,0.0812,0.0807,0.077,0.0805,0.0823,0.0937,0.0989,0.112,0.1122,0.1099,0.1067,0.1062,0.1042,0.1032,0,0,0,0.0785,0.0776,0.0786,0.077,0.0795,0.0819,0.0885,0.0938,0.1025,0.102,0.1117,0.1098,0.1097,0.1082,0.1075,0.1133,0.1151,0.1151,0.1151,0.075,0.0744,0.0737,0.0743,0.0774,0.0838,0.0894,0.0976,0.1047,0.1064,0.1069,0.1047,0.1031,0.1025,0.1086,0.1093,0.1093,0.1093,0.1092,0.0682,0.0687,0.0701,0.0679,0.0742,0.0781,0.0895,0.0941,0.1014,0.1048,0.105,0.1044,0.1014,0.1082,0.1089,0.109,0.109,0.1091,0.1091,0.0682,0.0675,0.0671,0.0668,0.0689,0.0759,0.0815,0.0895,0.095,0.0958,0.0966,0.0966,0.1015,0.0964,0.0964,0.0964,0.0964,0.0964,0.0963,0.0695,0.0679,0.0675,0.0673,0.0679,0.071,0.0785,0.0825,0.0871,0.0902,0.0902,0.1014,0.1008,0.1,0.0961,0.0961,0.0961,0.0962,0.0962,0.0657,0.0693,0.0672,0.0678,0.0692,0.0676,0.074,0.0762,0.0808,0.0805,0.0924,0.0888,0.0903,0.091,0.09,0.0838,0.0838,0.0838,0.0838,0.0655,0.0669,0.0652,0.0663,0.0685,0.0663,0.0619,0.0635,0.0754,0.0823,0.0907,0.0936,0.0938,0.0959,0.0965,0.0958,0.0912,0.0912,0.0912,0.0617,0.0627,0.0609,0.0649,0.0664,0.062,0.0516,0.0498,0.0736,0.0924,0.0993,0.099,0.1045,0.1044,0.1087,0.109,0.1084,0,0]},{"header":{"parameterUnit":"m.s-1","parameterCategory":2,"la1":30.2992,"la2":30.254,"lo1":-89.0895,"lo2":-89.0443,"dy":0.0025,"dx":0.0025,"nx":19,"ny":19,"refTime":"2026-03-21T21:00:00:Z","depth":"0","parameterNumber":3,"parameterNumberName":"V-component_of_CURRENTS"},"data":[0,0,0,-0.0089,-0.0088,-0.0033,-0.0033,0.003,0.0031,0,0,0,0,0,0,0,0,0,0,0,-0.0122,-0.0122,-0.0089,-0.0087,-0.0033,-0.0033,0.003,0.0031,0,0,0,0,0,0,0,0,0,0,0,-0.0122,-0.0122,-0.0122,-0.0087,-0.0033,-0.0033,0.003,-0.0011,0,0,0,0,0,0,0,0,0,0,-0.0064,-0.0108,-0.0122,-0.0122,-0.0087,-0.0033,-0.0033,-0.0013,-0.0009,0.0007,0,0.0011,0,0.0033,0.0036,0.0036,0,0,0,-0.0096,-0.0112,-0.0076,-0.0122,-0.0086,-0.0033,-0.006,-0.0011,-0.0005,0.0013,0.0013,0.0016,0.0034,0.0036,0.0037,0.0123,0.0124,0,0,-0.0099,-0.0131,-0.0079,-0.0073,-0.0076,-0.0062,-0.0058,-0.0008,-0.0017,0.0013,0.0017,0.0036,0.0037,0.0038,0.0123,0.0124,0,0,0,-0.0102,-0.0134,-0.0099,-0.0076,-0.0059,-0.006,-0.0056,-0.002,-0.0002,0.0018,0.0036,0.0037,0.0038,0.0123,0.0123,0.0133,0,0,0,-0.0104,-0.0134,-0.0101,-0.0122,-0.006,-0.0042,-0.007,-0.0007,0.0001,0.0036,0.0037,0.0039,0.0122,0.0123,0.0131,0.0165,0,0,0,-0.0124,-0.0136,-0.0127,-0.0123,-0.0092,-0.0042,-0.0023,-0.0005,0.0012,0.0036,0.0039,0.0122,0.0123,0.013,0.0163,0.0189,0,0,0,-0.0163,-0.0118,-0.0128,-0.0088,-0.0092,-0.0038,-0.0023,0.0009,0.0028,0.0038,0.0122,0.0123,0.013,0.0161,0.0188,0.0221,0.0232,0,0,-0.0112,-0.0114,-0.0087,-0.0092,-0.0022,-0.0046,0.0006,0.0036,0.005,0.0103,0.0105,0.0132,0.0163,0.0189,0.0276,0.0285,0,0,0,-0.0074,-0.0055,-0.0038,-0.0011,0.0013,0.0041,0.0051,0.0061,0.0108,0.007,0.0149,0.0169,0.0185,0.0202,0.0209,0.022,0.0128,0.0128,0.0127,-0.0052,-0.0025,0.0025,0.0062,0.0078,0.0097,0.0122,0.0142,0.0129,0.0156,0.0187,0.0234,0.0252,0.0259,0.0269,0.0185,0.0185,0.0185,0.0185,0.0027,0.0066,0.0069,0.0133,0.0146,0.0173,0.0202,0.0201,0.025,0.0226,0.0239,0.0225,0.0267,0.0276,0.0186,0.0186,0.0186,0.0185,0.0185,0.0033,0.0072,0.0089,0.0146,0.0199,0.0219,0.0269,0.0278,0.0285,0.0305,0.0315,0.0315,0.0314,0.0294,0.0294,0.0295,0.0295,0.0295,0.0295,0.0056,0.0086,0.0102,0.0165,0.02,0.0254,0.031,0.0342,0.0365,0.0361,0.0361,0.0345,0.0268,0.0254,0.0299,0.0299,0.0298,0.0298,0.0297,0.0115,0.0065,0.0122,0.0143,0.0237,0.0307,0.036,0.043,0.0454,0.0474,0.0447,0.0391,0.0399,0.0393,0.0383,0.0459,0.0459,0.0459,0.0459,0.0105,0.0099,0.0149,0.0191,0.0261,0.0339,0.0447,0.0519,0.054,0.0548,0.0519,0.049,0.0483,0.0493,0.0485,0.0476,0.0574,0.0574,0.0574,0.0114,0.0144,0.0172,0.0206,0.0287,0.0375,0.0484,0.0605,0.0626,0.0578,0.053,0.0525,0.0478,0.0466,0.0475,0.0463,0.0445,0,0]}],[{"header":{"parameterUnit":"m.s-1","parameterCategory":2,"la1":30.2992,"la2":30.254,"lo1":-89.0895,"lo2":-89.0443,"dy":0.0025,"dx":0.0025,"nx":19,"ny":19,"refTime":"2026-03-21T21:00:00:Z","depth":"2","parameterNumber":2,"parameterNumberName":"U-component_of_CURRENTS"},"data":[0,0,0,0.0122,0.0125,0.0137,0.0136,0.0273,0.0276,0,0,0,0,0,0,0,0,0,0,0,0.0072,0.0074,0.0121,0.0126,0.0137,0.0136,0.0272,0.0276,0,0,0,0,0,0,0,0,0,0,0,0.0071,0.0073,0.0075,0.0126,0.0137,0.0135,0.0272,0.0207,0,0,0,0,0,0,0,0,0,0,0.0169,0.0167,0.0073,0.0075,0.0127,0.0138,0.0135,0.0201,0.0211,0.0337,0,0.0382,0,0.041,0.0298,0.0299,0,0,0,0.0017,0.0158,0.0173,0.0076,0.0129,0.0138,0.0101,0.0205,0.0216,0.0351,0.0384,0.039,0.0412,0.03,0.0302,0.0608,0.0609,0,0,0.0017,0.0057,0.0165,0.0182,0.0196,0.0102,0.0103,0.0209,0.0248,0.0385,0.0393,0.0414,0.0302,0.0305,0.0607,0.0608,0,0,0,0.0088,0.0057,0.0062,0.0175,0.0212,0.0105,0.0106,0.0239,0.0247,0.0395,0.0416,0.0304,0.0308,0.0606,0.0607,0.0611,0,0,0,0.0082,0.0107,0.0063,0.0084,0.0211,0.0222,0.0135,0.0235,0.025,0.0415,0.0304,0.0311,0.0605,0.0607,0.0609,0.0557,0,0,0,0.006,0.0106,0.0125,0.0087,0.0146,0.022,0.0225,0.0235,0.0271,0.0299,0.0312,0.0604,0.0606,0.0607,0.0556,0.0519,0,0,0,0.0067,0.0133,0.0127,0.016,0.0148,0.0183,0.0223,0.0305,0.0339,0.0306,0.0605,0.0607,0.0606,0.0555,0.0519,0.0531,0.0531,0,0,0.0142,0.0144,0.0138,0.0134,0.0185,0.0169,0.0226,0.0333,0.0408,0.0559,0.0564,0.061,0.0556,0.0519,0.0654,0.065,0,0,0,0.0149,0.0154,0.0164,0.0181,0.0213,0.0221,0.0318,0.0401,0.0538,0.0462,0.0652,0.0618,0.0594,0.0604,0.0602,0.0617,0.0617,0.0617,0.0617,0.0187,0.0161,0.0183,0.017,0.0211,0.0312,0.0356,0.0489,0.0582,0.0678,0.0655,0.067,0.0687,0.0684,0.0723,0.0723,0.0723,0.0723,0.0723,0.02,0.0197,0.0173,0.0203,0.023,0.0291,0.0425,0.0517,0.0655,0.071,0.0688,0.0651,0.0682,0.0725,0.0724,0.0724,0.0724,0.0724,0.0724,0.0208,0.0233,0.0206,0.0239,0.0257,0.0301,0.0424,0.0532,0.0615,0.0648,0.0627,0.0627,0.0605,0.0628,0.0628,0.0628,0.0627,0.0627,0.0627,0.0259,0.0247,0.0264,0.0285,0.0287,0.0341,0.0429,0.052,0.0557,0.0597,0.0597,0.0636,0.0639,0.06,0.0622,0.0623,0.0623,0.0624,0.0624,0.0274,0.0289,0.0334,0.0335,0.0356,0.0364,0.0426,0.0499,0.0542,0.054,0.058,0.0583,0.0561,0.0564,0.0524,0.0524,0.0524,0.0524,0.0524,0.0257,0.0283,0.032,0.0357,0.0402,0.0374,0.0374,0.0361,0.0394,0.0354,0.036,0.0402,0.0412,0.0382,0.039,0.0347,0.0299,0.0299,0.0298,0.017,0.0237,0.0255,0.0376,0.0402,0.0372,0.03,0.0264,0.0268,0.028,0.0229,0.0527,0.0613,0.0618,0.0594,0.0598,0.0537,0,0]},{"header":{"parameterUnit":"m.s-1","parameterCategory":2,"la1":30.2992,"la2":30.254,"lo1":-89.0895,"lo2":-89.0443,"dy":0.0025,"dx":0.0025,"nx":19,"ny":19,"refTime":"2026-03-21T21:00:00:Z","depth":"2","parameterNumber":3,"parameterNumberName":"V-component_of_CURRENTS"},"data":[0,0,0,-0.021,-0.0209,-0.0162,-0.0162,-0.0117,-0.0116,0,0,0,0,0,0,0,0,0,0,0,-0.0224,-0.0223,-0.021,-0.0209,-0.0162,-0.0162,-0.0117,-0.0116,0,0,0,0,0,0,0,0,0,0,0,-0.0224,-0.0223,-0.0223,-0.0208,-0.0162,-0.0162,-0.0117,-0.0151,0,0,0,0,0,0,0,0,0,0,-0.0196,-0.0224,-0.0224,-0.0223,-0.0208,-0.0162,-0.0162,-0.0153,-0.0149,-0.0138,0,-0.0118,0,-0.0112,-0.0112,-0.0112,0,0,0,-0.022,-0.0228,-0.019,-0.0222,-0.0208,-0.0162,-0.0186,-0.0151,-0.0146,-0.0133,-0.0118,-0.0116,-0.0111,-0.0112,-0.0112,-0.0017,-0.0017,0,0,-0.0222,-0.0242,-0.0193,-0.0187,-0.0179,-0.0188,-0.0185,-0.0148,-0.0151,-0.0118,-0.0115,-0.011,-0.0112,-0.0111,-0.0018,-0.0017,0,0,0,-0.0222,-0.0244,-0.0209,-0.0189,-0.0177,-0.0186,-0.0183,-0.0154,-0.0134,-0.0114,-0.011,-0.0111,-0.0111,-0.0018,-0.0018,-0.0008,0,0,0,-0.0224,-0.0243,-0.0209,-0.0225,-0.0177,-0.0168,-0.019,-0.0137,-0.0132,-0.011,-0.0111,-0.011,-0.0019,-0.0018,-0.001,0.0023,0,0,0,-0.0229,-0.0245,-0.0228,-0.0225,-0.0198,-0.0168,-0.0149,-0.0136,-0.0129,-0.0112,-0.011,-0.002,-0.0018,-0.0011,0.002,0.0035,0,0,0,-0.0267,-0.0219,-0.0229,-0.0175,-0.0198,-0.0158,-0.0149,-0.0129,-0.0114,-0.0111,-0.0019,-0.0018,-0.0012,0.0018,0.0033,0.003,0.0038,0,0,-0.022,-0.0215,-0.0178,-0.0183,-0.0138,-0.0167,-0.0128,-0.0104,-0.0085,-0.0036,-0.0034,-0.0009,0.002,0.0035,0.0114,0.0119,0,0,0,-0.017,-0.0148,-0.0136,-0.0111,-0.0098,-0.0088,-0.009,-0.0075,-0.0021,-0.0066,0.0018,0.0038,0.0045,0.004,0.0045,-0.0011,-0.0011,-0.0011,-0.0011,-0.0165,-0.013,-0.0083,-0.0048,-0.004,-0.0039,-0.0013,0.0014,-0.0002,0.0038,0.0064,0.0113,0.0109,0.0112,0.0071,0.0071,0.0071,0.0071,0.0071,-0.0093,-0.0044,-0.0041,0.0018,0.0019,0.0037,0.0069,0.0074,0.013,0.0113,0.0119,0.0075,0.0118,0.0072,0.0072,0.0072,0.0072,0.0071,0.0071,-0.0083,-0.0044,-0.0023,0.0031,0.0069,0.0081,0.0142,0.0155,0.0165,0.0188,0.0163,0.0162,0.0113,0.0168,0.0168,0.0169,0.0169,0.0169,0.0169,-0.0061,-0.0032,-0.0014,0.0042,0.0071,0.0123,0.0182,0.0218,0.0218,0.0206,0.0205,0.0146,0.0143,0.012,0.0172,0.0172,0.0171,0.0171,0.0171,0.0008,-0.0045,0.0014,0.0029,0.0114,0.017,0.0222,0.0275,0.0292,0.0294,0.0215,0.0213,0.0213,0.0209,0.0189,0.0256,0.0256,0.0256,0.0256,0.0003,-0.0003,0.0046,0.0085,0.015,0.0201,0.0266,0.024,0.0214,0.0129,0.0134,0.009,0.009,0.0081,0.008,0.0055,0.0087,0.0087,0.0086,0.0018,0.0042,0.0077,0.0112,0.0179,0.0237,0.0265,0.0232,0.0098,0.0073,0.0039,0.0257,0.0205,0.0201,0.0195,0.019,0.0154,0,0]}],[{"header":{"parameterUnit":"m.s-1","parameterCategory":2,"la1":30.2992,"la2":30.254,"lo1":-89.0895,"lo2":-89.0443,"dy":0.0025,"dx":0.0025,"nx":19,"ny":19,"refTime":"2026-03-21T21:00:00:Z","depth":"4","parameterNumber":2,"parameterNumberName":"U-component_of_CURRENTS"},"data":[0,0,0,-0.0713,-0.0713,-0.0776,-0.0777,-0.1055,-0.1058,0,0,0,0,0,0,0,0,0,0,0,-0.0734,-0.0735,-0.0713,-0.0713,-0.0776,-0.0777,-0.1055,-0.1058,0,0,0,0,0,0,0,0,0,0,0,-0.0733,-0.0735,-0.0736,-0.0713,-0.0776,-0.0777,-0.1054,-0.0964,0,0,0,0,0,0,0,0,0,0,-0.0881,-0.0845,-0.0734,-0.0736,-0.0714,-0.0776,-0.0777,-0.0958,-0.097,-0.1074,0,-0.1096,0,-0.1059,-0.1078,-0.1079,0,0,0,-0.0741,-0.0835,-0.0858,-0.0736,-0.0714,-0.0776,-0.0756,-0.0963,-0.0977,-0.1091,-0.1099,-0.1107,-0.1064,-0.108,-0.1082,-0.1475,-0.1477,0,0,-0.0737,-0.0743,-0.0848,-0.0867,-0.0752,-0.0753,-0.0757,-0.0969,-0.0995,-0.11,-0.1112,-0.1068,-0.1082,-0.1085,-0.1473,-0.1475,0,0,0,-0.0709,-0.0741,-0.0755,-0.0858,-0.084,-0.0755,-0.0759,-0.0986,-0.0993,-0.1114,-0.1072,-0.1084,-0.1088,-0.1471,-0.1474,-0.1447,0,0,0,-0.0708,-0.0722,-0.0754,-0.0758,-0.0835,-0.0879,-0.0771,-0.0979,-0.0999,-0.107,-0.1084,-0.1091,-0.1468,-0.1472,-0.1443,-0.1418,0,0,0,-0.0727,-0.0722,-0.0737,-0.0758,-0.0767,-0.0874,-0.0893,-0.0982,-0.0973,-0.108,-0.1092,-0.1467,-0.1471,-0.1439,-0.1413,-0.1312,0,0,0,-0.0721,-0.0744,-0.0738,-0.0763,-0.0767,-0.081,-0.089,-0.0967,-0.1056,-0.1086,-0.1469,-0.1473,-0.1438,-0.1411,-0.1312,-0.1016,0,0,0,-0.0737,-0.0746,-0.0759,-0.0754,-0.076,-0.0802,-0.0886,-0.1048,-0.1178,-0.1412,-0.142,-0.1444,-0.1413,-0.1312,-0.1304,0,0,0,0,-0.0754,-0.0761,-0.0759,-0.0775,-0.0804,-0.0885,-0.0989,-0.1099,-0.1357,-0.1246,-0.155,-0.1533,-0.1466,-0.1302,-0.1497,-0.1496,-0.1495,-0.1495,-0.1494,-0.0729,-0.0756,-0.0768,-0.0808,-0.0861,-0.0978,-0.109,-0.1299,-0.1379,-0.1537,-0.1588,-0.1605,-0.1447,-0.1688,-0.1688,-0.1688,-0.1688,-0.1688,-0.1688,-0.0727,-0.0738,-0.0797,-0.0845,-0.0946,-0.1082,-0.1298,-0.1406,-0.157,-0.1678,-0.1613,-0.139,-0.1688,-0.1688,-0.1688,-0.1688,-0.1688,-0.1688,-0.1688,-0.0714,-0.0722,-0.0807,-0.0909,-0.1059,-0.1204,-0.1316,-0.1518,-0.16,-0.1585,-0.1342,-0.1569,-0.1471,-0.1524,-0.1523,-0.1523,-0.1522,-0.1522,-0.1522,-0.0677,-0.0747,-0.0802,-0.0937,-0.104,-0.1168,-0.1361,-0.1338,-0.1407,-0.129,-0.1552,-0.1548,-0.1554,-0.1465,-0.1514,-0.1516,-0.1517,-0.1517,-0.1518,-0.0647,-0.0682,-0.076,-0.0842,-0.0936,-0.1003,-0.1166,-0.1056,-0.0937,-0.0817,-0.1101,-0.1123,-0.1074,-0.109,-0.0982,-0.089,-0.0886,-0.0882,0,-0.0589,-0.0602,-0.067,-0.0717,-0.0709,-0.0839,-0.0619,-0.0581,-0.0683,-0.0699,-0.0898,-0.1226,-0.124,-0.1195,-0.1203,-0.1081,0,0,0,-0.0533,-0.0543,-0.0559,-0.0575,-0.0607,-0.0455,-0.0531,-0.0495,-0.0704,-0.0515,-0.0787,-0.0812,-0.1122,-0.1492,-0.147,-0.1476,-0.133,0,0]},{"header":{"parameterUnit":"m.s-1","parameterCategory":2,"la1":30.2992,"la2":30.254,"lo1":-89.0895,"lo2":-89.0443,"dy":0.0025,"dx":0.0025,"nx":19,"ny":19,"refTime":"2026-03-21T21:00:00:Z","depth":"4","parameterNumber":3,"parameterNumberName":"V-component_of_CURRENTS"},"data":[0,0,0,0.003,0.0029,-0.0016,-0.0017,0.0023,0.0023,0,0,0,0,0,0,0,0,0,0,0,0.006,0.006,0.003,0.0029,-0.0016,-0.0017,0.0023,0.0023,0,0,0,0,0,0,0,0,0,0,0,0.006,0.006,0.006,0.0029,-0.0016,-0.0017,0.0022,0.0032,0,0,0,0,0,0,0,0,0,0,0.0064,0.0058,0.006,0.006,0.0029,-0.0016,-0.0017,0.0031,0.0032,0.0072,0,0.0075,0,0.0048,0.0028,0.0029,0,0,0,0.0027,0.0057,0.0065,0.006,0.0028,-0.0016,0.0004,0.0031,0.0031,0.0073,0.0075,0.0075,0.0049,0.0029,0.0029,0.0105,0.0106,0,0,0.0029,0.0033,0.0064,0.0065,0.0032,0.0005,0.0002,0.003,0.0028,0.0075,0.0075,0.0049,0.0029,0.003,0.0105,0.0105,0,0,0,0.0038,0.0034,0.0038,0.0065,0.0047,0.0004,0.0,0.0026,0.0033,0.0075,0.005,0.003,0.0031,0.0105,0.0105,0.0087,0,0,0,0.004,0.004,0.004,0.0038,0.0047,0.0017,-0.0003,0.0032,0.0033,0.005,0.003,0.0032,0.0105,0.0105,0.0087,0.007,0,0,0,0.0059,0.004,0.0044,0.0039,0.002,0.0016,0.0022,0.003,0.0018,0.0029,0.0032,0.0104,0.0105,0.0087,0.007,0.007,0,0,0,0.0051,0.0028,0.0045,0.0003,0.0021,-0.0033,0.0021,-0.0004,-0.0001,0.003,0.0105,0.0105,0.0087,0.007,0.007,-0.0014,0,0,0,0.001,0.0023,-0.0005,0.0009,-0.006,-0.0028,-0.0087,-0.0043,0.0031,0.0102,0.0102,0.0087,0.007,0.007,0.0024,0,0,0,0,-0.0027,-0.004,-0.006,-0.0091,-0.0114,-0.0135,-0.011,-0.006,0.0039,0.0037,0.0105,0.0095,0.0095,0.0048,0.0108,0.0108,0.0108,0.0108,0.0108,-0.0061,-0.0085,-0.0145,-0.0175,-0.0207,-0.02,-0.0178,-0.009,-0.0015,0.0052,0.0094,0.0099,0.005,0.0115,0.0115,0.0115,0.0115,0.0115,0.0115,-0.0133,-0.0168,-0.0203,-0.0267,-0.0276,-0.0297,-0.0206,-0.0122,0.0009,0.0076,0.0078,0.0049,0.0114,0.0114,0.0114,0.0114,0.0114,0.0114,0.0114,-0.0144,-0.0172,-0.0213,-0.0304,-0.0329,-0.0307,-0.0251,-0.0112,0.0005,0.0036,0.0026,0.0089,0.0074,0.0072,0.0072,0.0072,0.0072,0.0072,0.0072,-0.0144,-0.0196,-0.0255,-0.0329,-0.0365,-0.0328,-0.0222,-0.0175,-0.0057,-0.0006,0.0063,0.0084,0.0086,0.0073,0.0071,0.0071,0.0071,0.0071,0.0071,-0.0171,-0.018,-0.0274,-0.0327,-0.0405,-0.0379,-0.0302,-0.0226,-0.0184,-0.0167,-0.004,-0.0034,-0.0037,-0.0032,-0.005,-0.0088,-0.0089,-0.009,0,-0.0166,-0.0183,-0.0295,-0.0377,-0.0427,-0.04,-0.0375,-0.0332,-0.0221,-0.0175,-0.0181,-0.0036,-0.0031,-0.0035,-0.0032,-0.0054,0,0,0,-0.0186,-0.021,-0.0274,-0.0354,-0.0431,-0.0382,-0.0347,-0.0315,-0.0224,-0.0277,-0.0118,-0.0111,-0.014,0.0068,0.0078,0.008,0.0059,0,0]}]]